Flag for France Weather past 2 weeks in Orléans, France

Now
61 °F

Partly sunny.


Feels Like: 61 °F
Forecast: 49 / 65 °F
Wind: 7 mph from Southwest

Location: Orleans Airport

Current Time: Apr 25, 2015 at 11:19:53 AM

Latest Report: Apr 25, 2015 at 11:00 AM


Visibility: N/A

Pressure: 29.83 "Hg

Humidity: 83%

Dew point: 55 °F

Location of OrléansLocation

Historic Weather in Orléans — Graph

°F

Orléans temperature yesterday

Maximum temperature yesterday: 63 °F (at 5:30 PM)
Minimum temperature yesterday: 43 °F (at 4:30 AM)
Average temperature yesterday: 53 °F

Past Weeks' High & Low Weather Summary

 TemperatureHumidityPressure
High81 °F (Apr 15, 4:30 PM)100% (Apr 12, 9:00 AM)30.51 "Hg (Apr 12, 9:00 AM)
Low37 °F (Apr 19, 6:00 AM)24% (Apr 14, 6:00 PM)29.83 "Hg (Apr 16, 5:30 PM)
Average56 °F65%30.14 "Hg
* Reported Apr 10 10:00 AM — Apr 25 10:00 AM, Orléans, Weather by CustomWeather, © 2015

Note: Actual official high and low records may vary slightly from our data, if they occured in-between our weather recording intervals... More about our weather records

Advertising

Orléans weather history for previous 24 hours

 ConditionsComfort  
Time TempWeatherWind HumidityBarometerVisibility
10:00 AM
Sat, Apr 25
57 °FClear.6 mph82%29.83 "HgN/A
9:30 AM57 °FClear.3 mph82%29.83 "HgN/A
9:00 AM55 °FClear.5 mph94%29.83 "HgN/A
8:30 AM54 °FClear.2 mph94%29.83 "Hg4 mi
8:00 AM54 °FLight rain. Fog.2 mph94%29.83 "Hg2 mi
7:30 AM54 °FLight rain. Fog.3 mph94%29.83 "Hg3 mi
7:00 AM54 °FClear.3 mph94%29.83 "Hg4 mi
6:30 AM54 °FLight rain. Fog.3 mph94%29.83 "Hg3 mi
6:00 AM54 °FCool.3 mph94%29.83 "Hg4 mi
5:30 AM54 °FFog.3 mph94%29.83 "Hg2 mi
5:00 AM54 °FFog.5 mph94%29.83 "Hg3 mi
4:30 AM54 °FLight rain. Fog.2 mph94%29.83 "Hg3 mi
4:00 AM55 °FLight rain. Fog.6 mph88%29.83 "Hg3 mi
3:00 AM55 °FLight rain. Fog.6 mph88%29.86 "Hg3 mi
2:30 AM55 °FClear.3 mph88%29.86 "Hg5 mi
2:00 AM55 °FClear.5 mph88%29.86 "Hg4 mi
1:30 AM54 °FClear.2 mph94%29.86 "Hg4 mi
1:00 AM55 °FClear.1 mph88%29.86 "Hg4 mi
12:30 AM55 °FClear.3 mph88%29.86 "Hg6 mi
12:00 AM55 °FClear.3 mph88%29.89 "HgN/A
11:30 PM
Fri, Apr 24
55 °FClear.3 mph88%29.89 "Hg6 mi
11:00 PM55 °FClear.2 mph82%29.89 "Hg6 mi
10:30 PM57 °FClear.2 mph82%29.89 "HgN/A
10:00 PM57 °FClear.3 mph82%29.89 "HgN/A
9:30 PM57 °FClear.2 mph82%29.89 "HgN/A
9:00 PM57 °FClear.5 mph82%29.89 "Hg6 mi
8:30 PM57 °FBroken clouds.8 mph82%29.89 "Hg6 mi
8:00 PM59 °FClear.6 mph77%29.89 "Hg6 mi
7:30 PM59 °FClear.8 mph77%29.89 "Hg6 mi
7:00 PM59 °FClear.9 mph77%29.89 "HgN/A
6:30 PM59 °FClear.9 mph77%29.92 "HgN/A
6:00 PM61 °FClear.8 mph72%29.92 "HgN/A
5:30 PM63 °FClear.5 mph68%29.92 "HgN/A
5:00 PM61 °FBroken clouds.6 mph72%29.92 "HgN/A
4:30 PM59 °FOvercast.9 mph77%29.95 "HgN/A
4:00 PM59 °FOvercast.7 mph77%29.95 "HgN/A
3:30 PM57 °FOvercast.8 mph82%29.98 "HgN/A
3:00 PM57 °FOvercast.7 mph77%29.98 "HgN/A
2:30 PM57 °FOvercast.10 mph77%29.98 "HgN/A
2:00 PM55 °FOvercast.10 mph82%29.98 "HgN/A
1:30 PM55 °FOvercast.10 mph82%30.01 "HgN/A
1:00 PM55 °FLow clouds.12 mph82%30.01 "HgN/A
12:30 PM54 °FLow clouds.14 mph88%30.01 "Hg5 mi
12:00 PM54 °FLow clouds.13 mph88%30.01 "Hg4 mi
11:30 AM54 °FFog.10 mph94%30.01 "Hg3 mi
11:00 AM54 °FFog.12 mph94%30.01 "Hg3 mi
Weather by CustomWeather, © 2015

See weather overviewHow to use our weather pages